Laconia, NH

11:23 AM EST on November 12, 2019 (GMT -0500)
Laconia Municipal

Weather History for KLCI - September, 2019

Change the Weather History Date:

Monday, September 2, 2019

  Actual Average Record
Temperature  
Mean Temperature 61 °F -  
Max Temperature 62 °F 76 °F 87 °F (1999)
Min Temperature 60 °F 53 °F 44 °F (1991)
Degree Days  
Heating Degree Days 4    
Growing Degree Days 11 (Base 50)    
Moisture  
Dew Point 59 °F    
Average Humidity 93    
Maximum Humidity 100    
Minimum Humidity 81    
Precipitation  
Precipitation 0.62 in - - ()
Sea Level Pressure  
Sea Level Pressure 30.08 in    
Wind  
Wind Speed 3 mph ()    
Max Wind Speed 7 mph    
Max Gust Speed -    
Visibility 7.9 miles    
Events Rain    
Averages and records for this station are not official NWS values.
T = Trace of Precipitation, MM = Missing Value Source: Averaged Metar Reports

Daily Weather History Graph

Daily Weather History Graph

Search for Another Location

Airport or City:

Astronomy

Sep. 02, 2019 Rise Set
Actual Time 6:10 AM EDT 7:19 PM EDT
Civil Twilight 5:40 AM EDT 7:49 PM EDT
Nautical Twilight 5:05 AM EDT 8:24 PM EDT
Astronomical Twilight 4:28 AM EDT 9:01 PM EDT
Moon 9:55 AM EDT (9/2) 9:32 PM EDT (9/2)
Length of Visible Light 14h 08m
Length of Day
13h 09m
Waxing Crescent, 15% of the Moon is Illuminated
Sep 2
Waxing Crescent
Sep 5
First Quarter
Sep 14
Full
Sep 21
Last Quarter
Sep 28
New

Hourly Weather History & Observations

Time (EDT) Temp. Dew Point Humidity Pressure Visibility Wind Dir Wind Speed Gust Speed Precip Events Conditions
12:52 AM 60.8 °F 55.4 °F 82% 30.26 in 10.0 mi SW 5.8 mph - N/A   Overcast
12:56 AM 61.0 °F 55.0 °F 81% 30.26 in 10.0 mi SW 3.5 mph - N/A   Overcast
1:48 AM 60.8 °F 55.4 °F 82% 30.24 in 10.0 mi SSW 4.6 mph - N/A   Overcast
1:56 AM 61.0 °F 55.9 °F 83% 30.24 in 10.0 mi SSW 4.6 mph - N/A   Overcast
2:56 AM 60.1 °F 57.0 °F 90% 30.21 in 10.0 mi SSW 3.5 mph - 0.00 in Rain Light Rain
3:56 AM 60.1 °F 57.9 °F 93% 30.19 in 10.0 mi SSW 4.6 mph - 0.01 in Rain Light Rain
4:56 AM 60.1 °F 57.9 °F 93% 30.18 in 10.0 mi SW 3.5 mph - 0.01 in   Overcast
5:56 AM 61.0 °F 57.9 °F 90% 30.17 in 10.0 mi South 5.8 mph - 0.00 in   Overcast
6:56 AM 60.1 °F 57.9 °F 93% 30.17 in 9.0 mi SW 4.6 mph - 0.01 in Rain Light Rain
7:56 AM 60.1 °F 57.9 °F 93% 30.17 in 5.0 mi South 3.5 mph - 0.05 in Rain Rain
8:56 AM 60.1 °F 57.9 °F 93% 30.14 in 10.0 mi ESE 3.5 mph - 0.13 in Rain Light Rain
9:56 AM 60.1 °F 59.0 °F 96% 30.14 in 10.0 mi East 3.5 mph - 0.00 in   Overcast
10:44 AM 60.8 °F 59.0 °F 94% 30.12 in 1.8 mi ENE 4.6 mph - 0.12 in Rain Heavy Rain
10:56 AM 60.1 °F 59.0 °F 96% 30.12 in 0.8 mi East 3.5 mph - 0.14 in Rain Rain
11:03 AM 60.8 °F 59.0 °F 94% 30.11 in 1.2 mi East 4.6 mph - 0.03 in Rain Light Rain
11:06 AM 60.8 °F 59.0 °F 94% 30.11 in 3.0 mi East 3.5 mph - 0.03 in Rain Light Rain
11:56 AM 60.1 °F 57.9 °F 93% 30.09 in 2.0 mi Calm Calm - 0.09 in Rain Heavy Rain
12:10 PM 60.8 °F 57.2 °F 88% 30.08 in 10.0 mi NNE 3.5 mph - 0.01 in Rain Light Rain
12:56 PM 61.0 °F 57.9 °F 90% 30.06 in 10.0 mi Calm Calm - 0.01 in   Overcast
1:56 PM 62.1 °F 59.0 °F 90% 30.04 in 10.0 mi Calm Calm - N/A   Overcast
2:56 PM 62.1 °F 60.1 °F 93% 30.02 in 10.0 mi ENE 4.6 mph - 0.01 in Rain Light Rain
3:56 PM 61.0 °F 60.1 °F 97% 29.99 in 7.0 mi NE 6.9 mph - 0.07 in Rain Light Rain
4:44 PM 62.6 °F 60.8 °F 94% 29.99 in 3.0 mi Calm Calm - 0.01 in Rain Light Rain
4:56 PM 62.1 °F 61.0 °F 96% 29.99 in 2.5 mi Calm Calm - 0.03 in Rain Rain
5:04 PM 62.6 °F 60.8 °F 94% 29.99 in 3.0 mi Calm Calm - 0.01 in Rain Light Rain
5:18 PM 62.6 °F 60.8 °F 94% 29.99 in 6.0 mi NW 4.6 mph - 0.01 in Rain Light Rain
5:33 PM 62.6 °F 60.8 °F 94% 29.98 in 8.0 mi Calm Calm - 0.02 in Rain Light Rain
5:56 PM 62.1 °F 61.0 °F 96% 29.97 in 10.0 mi Calm Calm - 0.02 in Rain Light Rain
6:56 PM 62.1 °F 61.0 °F 96% 29.95 in 10.0 mi Calm Calm - 0.00 in   Overcast
7:56 PM 62.1 °F 61.0 °F 96% 29.97 in 10.0 mi NNW 4.6 mph - N/A   Overcast
8:32 PM 62.6 °F 60.8 °F 94% 29.97 in 10.0 mi Calm Calm - N/A   Overcast
8:56 PM 62.1 °F 61.0 °F 96% 29.98 in 10.0 mi Calm Calm - 0.00 in Rain Light Rain
9:56 PM 61.0 °F 61.0 °F 100% 29.98 in 10.0 mi Calm Calm - 0.00 in   Overcast
10:48 PM 60.8 °F 60.8 °F 100% 29.98 in 10.0 mi South 4.6 mph - 0.04 in Rain Light Rain
10:56 PM 61.0 °F 60.1 °F 97% 29.98 in 10.0 mi Calm Calm - 0.04 in   Overcast
11:29 PM 60.8 °F 60.8 °F 100% 29.97 in 10.0 mi South 3.5 mph - N/A   Overcast
11:56 PM 60.1 °F 60.1 °F 100% 29.98 in 10.0 mi West 4.6 mph - N/A   Scattered Clouds